Tacoma Narrows, WA
on Friday, December 21, 2012

Friday
Previous Day Next Day
Daily Summary
 ActualAverageRecord
Temperature
Mean Temperature °F °F  
Max Temperature 46°F 43°F 53°F (2005)
Min Temperature 35°F 36°F 26°F (2008)
Degree Days
Heating Degree Days 24    
Moisture
Dew Point 35°F   
Average Humidity 86    
Maximum Humidity 96    
Minimum Humidity 71    
Precipitation
Precipitation 0.02 in in in ()
Wind
Wind Speed 2 mph   
Max Wind Speed 5 mph   
Max Gust Speed mph   
Visibility 8 miles   
Events Fog , Rain   
Averages and records for this station are not official NWS values.
Key: T is trace of precipitation, MM is missing value
Source: NWS Daily Summary
Seasonal Weather Averages
Time(PST)TemperatureDew PointHumidity Pressure Visibility Wind DirectionWind SpeedGust SpeedPrecipitationEvents Conditions
12:53 AM 35.1°F 30.9°F 85% 29.82 in 10.0 miles Calm Calm - N/A   Clear
1:53 AM 35.1°F 32.0°F 89% 29.80 in 10.0 miles Calm Calm - N/A   Clear
2:27 AM 35.6°F 33.8°F 93% 29.79 in 2.5 miles NNE 3.5 mph - N/A   Partly Cloudy
2:30 AM 35.6°F 33.8°F 93% 29.78 in 1.0 miles NNE 3.5 mph - N/A   Mist
2:37 AM 35.6°F 33.8°F 93% 29.79 in 0.5 miles Calm Calm - N/A Fog Fog
2:53 AM 35.1°F 33.1°F 92% 29.80 in 0.2 miles NNE 4.6 mph - N/A Fog Fog
3:49 AM 35.6°F 33.8°F 93% 29.76 in 0.8 miles NNE 4.6 mph - N/A   Mist
3:53 AM 35.1°F 34.0°F 96% 29.78 in 1.2 miles NNE 3.5 mph - N/A   Overcast
4:09 AM 35.6°F 33.8°F 93% 29.76 in 3.0 miles Calm Calm - N/A   Mostly Cloudy
4:19 AM 35.6°F 33.8°F 93% 29.76 in 4.0 miles Calm Calm - N/A   Scattered Clouds
4:53 AM 35.1°F 33.1°F 92% 29.75 in 10.0 miles NE 3.5 mph - N/A   Clear
5:53 AM 35.1°F 32.0°F 89% 29.75 in 10.0 miles NE 4.6 mph - N/A   Mostly Cloudy
6:53 AM 37.0°F 30.9°F 79% 29.74 in 10.0 miles Calm Calm - 0.00 in Rain Light Rain
7:53 AM 37.0°F 33.1°F 86% 29.73 in 10.0 miles NE 3.5 mph - 0.01 in   Overcast
8:53 AM 37.0°F 34.0°F 89% 29.74 in 10.0 miles West 3.5 mph - N/A   Overcast
9:53 AM 37.0°F 35.1°F 93% 29.75 in 8.0 miles Calm Calm - 0.00 in Rain Light Rain
10:53 AM 39.9°F 36.0°F 86% 29.76 in 10.0 miles WSW 3.5 mph - 0.00 in   Overcast
11:53 AM 42.1°F 35.1°F 76% 29.76 in 10.0 miles South 3.5 mph - N/A   Mostly Cloudy
12:53 PM 45.0°F 36.0°F 71% 29.76 in 10.0 miles West 3.5 mph - N/A   Mostly Cloudy
1:53 PM 46.0°F 37.0°F 71% 29.75 in 10.0 miles SW 4.6 mph - N/A   Partly Cloudy
2:53 PM 45.0°F 37.0°F 74% 29.74 in 10.0 miles Calm Calm - N/A   Clear
3:53 PM 43.0°F 37.9°F 82% 29.74 in 10.0 miles Calm Calm - N/A   Partly Cloudy
4:53 PM 42.1°F 37.0°F 82% 29.73 in 10.0 miles NE 3.5 mph - N/A   Partly Cloudy
5:53 PM 39.0°F 35.1°F 86% 29.72 in 10.0 miles Calm Calm - N/A   Partly Cloudy
6:53 PM 42.1°F 37.0°F 82% 29.70 in 10.0 miles North 4.6 mph - N/A   Mostly Cloudy
7:53 PM 39.0°F 36.0°F 89% 29.70 in 10.0 miles Calm Calm - N/A   Scattered Clouds
8:53 PM 41.0°F 37.0°F 86% 29.70 in 10.0 miles Calm Calm - N/A   Overcast
9:53 PM 42.1°F 37.9°F 85% 29.69 in 10.0 miles Calm Calm - N/A   Overcast
10:53 PM 42.1°F 37.9°F 85% 29.68 in 10.0 miles Calm Calm - 0.01 in   Overcast
11:53 PM 42.1°F 34.0°F 73% 29.66 in 10.0 miles East 4.6 mph - N/A   Overcast
Moon Phase
Dec. 21 Dec. 28 Jan. 04 Jan. 11 Jan. 18
Sunrise:07:54 AM (PST) Moon Rise:12:27 PM (PST)
Sunset:04:22 PM (PST) Moon Set:01:29 AM (PST)

Copyright © 2014 The Weather Underground, Inc.